St Lucie County International Airport Fort Pierce US
ICAO: KFPR
IATA: FPR
Category: Medium
Scheduled Services: No

Elevation: 24 ft
TransAlt. 18000 ft.

Airport Communications:
ATIS:134.825
MIAMI CNTR:132.25
CTAF:128.2
GND:119.55
MIAMI RDO:122.55
FORT PIERCE TWR:128.2

KFPR Zoom In..

If you have problems with the map follow the link
https://www.worldairports.se/pages/airport.php?
ICAO=KFPR

Runways:

(A) RW 10L length 4000 ft width 75 ft
---- / hdg 97

(B) RW 10R length 6492 ft width 150 ft
ILS 110.55 / hdg 97

(C) RW 14 length 4755 ft width 100 ft
---- / hdg 142

(D) RW 28L length 6492 ft width 150 ft
---- / hdg 277

(E) RW 28R length 4000 ft width 75 ft
---- / hdg 277

(F) RW 32 length 4755 ft width 100 ft
---- / hdg 322

Location; KFPR
Day. 21 / Time. 19.53 Zulu
* Altimeter: 30.08
* Temperature: 17° c. 62.6°f.
* Wind from: 350° Speed 09 kn with Gusts up to 19 kn.
Dewpoint: 03° c.
Visibility: 10 Statute Miles.
Clouds: Few 4800 ft.

KFPR 211953Z 35009G19KT 10SM FEW048 17/03 A3008 RMK AO2 SLP186 T01720033


Wind From 350°
Speed 09 kn.

 
 
jpsmedia worldairports.se 2020   terms of use